GW0500 Weather Reports


Display with metric or nautical units.
time (UTC)temp
F
wind
direction
speed
MPH
gust
MPH
rain 1hr
in
rain 24hr
in
rain mn
in
humidity
%
barometer
mb
20221204213105 57 100 2.0 9.0 0.00 0.01 0.01 51 1021.3
20221204212547 57 80 2.0 9.0 0.00 0.01 0.01 50 1021.2
20221204212046 58 180 4.0 9.0 0.00 0.01 0.01 50 1021.3
20221204211608 58 130 2.0 8.0 0.00 0.01 0.01 50 1021.1
20221204211046 58 0 2.0 10.0 0.00 0.01 0.01 51 1021.2
20221204210549 57 0 2.0 10.0 0.00 0.01 0.01 53 1021.1
20221204210114 57 202 3.0 11.0 0.00 0.01 0.01 49 1021.4
20221204205546 57 150 2.0 12.0 0.00 0.01 0.01 51 1021.4
20221204205046 57 217 4.0 12.0 0.00 0.01 0.01 47 1021.4
20221204204619 57 201 2.0 7.0 0.00 0.01 0.01 52 1021.3
20221204204046 58 161 3.0 7.0 0.00 0.01 0.01 50 1021.4
20221204203545 57 188 1.0 8.0 0.00 0.01 0.01 50 1021.4
20221204203103 57 134 2.0 11.0 0.00 0.01 0.01 50 1021.3
20221204202545 57 181 3.0 12.0 0.00 0.01 0.01 50 1021.4
20221204202046 57 148 3.0 12.0 0.00 0.01 0.01 49 1021.4
20221204201608 57 153 3.0 10.0 0.00 0.01 0.01 54 1021.4
20221204201049 57 105 2.0 11.0 0.00 0.01 0.01 54 1021.4
20221204200543 56 195 2.0 11.0 0.00 0.01 0.01 53 1021.4
20221204200103 56 200 3.0 10.0 0.00 0.01 0.01 51 1021.5
20221204195546 57 153 3.0 10.0 0.00 0.01 0.01 52 1021.5
20221204195045 57 183 1.0 9.0 0.00 0.01 0.01 54 1021.5
20221204194601 56 125 4.0 9.0 0.00 0.01 0.01 52 1021.7
20221204194046 56 180 1.0 9.0 0.00 0.01 0.01 56 1021.8
20221204193546 56 159 3.0 9.0 0.00 0.01 0.01 56 1021.9
20221204193100 56 200 3.0 7.0 0.00 0.01 0.01 52 1022.1
20221204192547 56 148 2.0 9.0 0.00 0.01 0.01 50 1022.2
20221204192050 56 184 2.0 9.0 0.00 0.01 0.01 55 1022.2
20221204191601 56 150 3.0 14.0 0.00 0.01 0.01 53 1022.3
20221204191044 56 184 1.0 15.0 0.00 0.01 0.01 53 1022.3
20221204190546 56 184 3.0 15.0 0.00 0.01 0.01 54 1022.3
20221204190106 56 144 2.0 6.0 0.00 0.01 0.01 58 1022.4
20221204185546 55 205 1.0 6.0 0.00 0.01 0.01 57 1022.5
20221204185047 55 158 2.0 6.0 0.00 0.01 0.01 59 1022.7
20221204184604 55 161 1.0 5.0 0.00 0.01 0.01 59 1022.8
20221204184046 54 219 2.0 12.0 0.00 0.01 0.01 59 1022.8
20221204183547 54 222 2.0 12.0 0.00 0.01 0.01 61 1022.8
20221204183059 54 153 4.0 12.0 0.00 0.01 0.01 57 1023.0
20221204182549 54 163 2.0 8.0 0.00 0.01 0.01 60 1022.9
20221204182046 54 175 1.0 8.0 0.00 0.01 0.01 61 1023.1
20221204181604 54 144 1.0 7.0 0.00 0.01 0.01 64 1023.1
20221204181046 53 127 2.0 8.0 0.00 0.01 0.01 65 1023.2
20221204180546 53 121 2.0 8.0 0.00 0.01 0.01 65 1023.2
20221204180105 53 170 3.0 8.0 0.00 0.01 0.01 63 1023.2
20221204175546 53 158 3.0 8.0 0.00 0.01 0.01 67 1023.2
20221204175046 53 156 2.0 8.0 0.00 0.01 0.01 66 1023.1
20221204174607 52 134 2.0 7.0 0.00 0.01 0.01 68 1023.2
20221204174046 52 163 2.0 7.0 0.00 0.01 0.01 68 1023.2
20221204173544 52 146 1.0 7.0 0.00 0.01 0.01 70 1023.2
20221204173105 52 182 2.0 7.0 0.00 0.01 0.01 70 1023.1
20221204172546 51 144 1.0 7.0 0.00 0.01 0.01 74 1023.1
20221204172047 50 179 2.0 7.0 0.00 0.01 0.01 74 1023.1
20221204171605 49 164 0.0 3.0 0.00 0.01 0.01 77 1023.1
20221204171046 49 0 0.0 3.0 0.00 0.01 0.01 79 1023.2
20221204170547 48 0 0.0 2.0 0.00 0.01 0.01 80 1023.1
20221204170101 48 0 0.0 2.0 0.00 0.01 0.01 82 1023.1
20221204165547 47 0 0.0 3.0 0.00 0.01 0.01 83 1023.1
20221204165046 47 0 0.0 3.0 0.00 0.01 0.01 85 1023.0
20221204164623 46 0 0.0 2.0 0.00 0.01 0.01 87 1023.0
20221204164046 46 125 0.0 2.0 0.00 0.01 0.01 88 1022.9
20221204163549 45 216 0.0 2.0 0.01 0.01 0.01 88 1022.9
20221204163105 45 0 0.0 3.0 0.01 0.01 0.01 89 1023.0
20221204162547 44 0 0.0 3.0 0.01 0.01 0.01 89 1023.0
20221204162049 44 216 0.0 2.0 0.01 0.01 0.01 89 1022.9
20221204161607 44 216 0.0 2.0 0.01 0.01 0.01 89 1022.9
20221204161046 43 216 0.0 2.0 0.01 0.01 0.01 90 1022.9
20221204160546 43 216 0.0 1.0 0.01 0.01 0.01 89 1022.9
20221204160108 43 0 0.0 1.0 0.01 0.01 0.01 90 1022.7
20221204155547 43 216 0.0 1.0 0.01 0.01 0.01 90 1022.8
20221204155047 43 0 0.0 1.0 0.01 0.01 0.01 89 1022.9
20221204154607 43 0 0.0 1.0 0.01 0.01 0.01 89 1022.8
20221204154044 42 0 0.0 1.0 0.01 0.01 0.01 89 1022.7
20221204153544 42 0 0.0 1.0 0.00 0.00 0.00 89 1022.6
20221204153101 42 0 0.0 0.0 0.00 0.00 0.00 89 1022.6
20221204152547 42 0 0.0 0.0 0.00 0.00 0.00 89 1022.5
20221204152050 42 0 0.0 1.0 0.00 0.00 0.00 89 1022.4
20221204151558 42 0 0.0 1.0 0.00 0.00 0.00 89 1022.3
20221204151047 42 0 0.0 1.0 0.00 0.00 0.00 89 1022.3
20221204150546 42 0 0.0 0.0 0.00 0.00 0.00 89 1022.3
20221204150108 41 0 0.0 0.0 0.00 0.00 0.00 89 1022.4
20221204145546 41 0 0.0 1.0 0.00 0.00 0.00 89 1022.3
20221204145046 41 0 0.0 1.0 0.00 0.00 0.00 88 1022.3
20221204144601 41 216 0.0 1.0 0.00 0.00 0.00 88 1022.2
20221204144047 41 0 0.0 0.0 0.00 0.00 0.00 87 1022.2
20221204143546 41 0 0.0 0.0 0.00 0.00 0.00 86 1022.2
20221204143111 41 0 0.0 0.0 0.00 0.00 0.00 85 1022.2
20221204142547 41 0 0.0 0.0 0.00 0.00 0.00 84 1022.0
20221204142046 41 0 0.0 1.0 0.00 0.00 0.00 84 1022.0
20221204141600 41 0 0.0 1.0 0.00 0.00 0.00 84 1021.9
20221204141047 41 0 0.0 1.0 0.00 0.00 0.00 84 1021.9
20221204140546 42 0 0.0 1.0 0.00 0.00 0.00 85 1021.8
20221204140116 42 0 0.0 1.0 0.00 0.00 0.00 85 1021.8
20221204135549 42 0 0.0 1.0 0.00 0.00 0.00 85 1021.7
20221204135047 42 0 0.0 1.0 0.00 0.00 0.00 85 1021.7
20221204134602 42 0 0.0 1.0 0.00 0.00 0.00 86 1021.6
20221204134046 42 0 0.0 1.0 0.00 0.00 0.00 87 1021.6
20221204133543 42 0 0.0 0.0 0.00 0.00 0.00 88 1021.6
20221204133104 42 0 0.0 0.0 0.00 0.00 0.00 89 1021.6
20221204132544 42 0 0.0 0.0 0.00 0.00 0.00 89 1021.5
20221204132046 42 0 0.0 0.0 0.00 0.00 0.00 89 1021.5
20221204131558 42 0 0.0 0.0 0.00 0.00 0.00 89 1021.5
20221204131048 42 0 0.0 0.0 0.00 0.00 0.00 89 1021.5
20221204130550 42 0 0.0 0.0 0.00 0.00 0.00 89 1021.5
20221204130101 42 0 0.0 1.0 0.00 0.00 0.00 89 1021.5
20221204125547 42 0 0.0 1.0 0.00 0.00 0.00 88 1021.5
20221204125049 42 0 0.0 0.0 0.00 0.00 0.00 88 1021.5
20221204124603 42 0 0.0 0.0 0.00 0.00 0.00 88 1021.6
20221204124046 42 0 0.0 0.0 0.00 0.00 0.00 88 1021.4
20221204123547 42 0 0.0 0.0 0.00 0.00 0.00 89 1021.6
20221204123125 42 0 0.0 0.0 0.00 0.00 0.00 89 1021.5
20221204122546 42 0 0.0 0.0 0.00 0.00 0.00 88 1021.5
20221204122046 42 0 0.0 0.0 0.00 0.00 0.00 89 1021.5
20221204121606 42 0 0.0 0.0 0.00 0.00 0.00 89 1021.5
20221204121047 42 0 0.0 0.0 0.00 0.00 0.00 89 1021.5
20221204120547 42 0 0.0 0.0 0.00 0.00 0.00 89 1021.4
20221204120100 42 0 0.0 0.0 0.00 0.00 0.00 89 1021.5
20221204115547 42 0 0.0 0.0 0.00 0.00 0.00 89 1021.4
20221204115046 42 0 0.0 0.0 0.00 0.00 0.00 89 1021.4
20221204114559 42 0 0.0 0.0 0.00 0.00 0.00 90 1021.6
20221204114046 42 0 0.0 1.0 0.00 0.00 0.00 90 1021.6
20221204113545 42 0 0.0 1.0 0.00 0.00 0.00 90 1021.6
20221204113057 42 0 0.0 0.0 0.00 0.00 0.00 90 1021.6
20221204112543 42 0 0.0 0.0 0.00 0.00 0.00 90 1021.7
20221204112047 42 0 0.0 0.0 0.00 0.00 0.00 90 1021.6
20221204111622 42 0 0.0 0.0 0.00 0.00 0.00 90 1021.7
20221204111050 42 0 0.0 0.0 0.00 0.00 0.00 90 1021.6
20221204110546 41 0 0.0 1.0 0.00 0.00 0.00 90 1021.7
20221204110110 41 0 0.0 1.0 0.00 0.00 0.00 91 1021.6
20221204105544 41 0 0.0 1.0 0.00 0.00 0.00 91 1021.6
20221204105047 41 0 0.0 1.0 0.00 0.00 0.00 91 1021.7
20221204104613 41 0 0.0 0.0 0.00 0.00 0.00 91 1021.8
20221204104046 41 0 0.0 0.0 0.00 0.00 0.00 91 1021.8
20221204103546 41 0 0.0 0.0 0.00 0.00 0.00 90 1021.8
20221204103117 41 0 0.0 0.0 0.00 0.00 0.00 91 1021.7
20221204102547 41 0 0.0 0.0 0.00 0.00 0.00 90 1021.8
20221204102046 41 0 0.0 0.0 0.00 0.00 0.00 90 1021.8
20221204101624 41 0 0.0 0.0 0.00 0.00 0.00 89 1021.8
20221204101046 41 0 0.0 0.0 0.00 0.00 0.00 89 1021.7
20221204100546 41 0 0.0 0.0 0.00 0.00 0.00 89 1021.7
20221204100059 41 0 0.0 0.0 0.00 0.00 0.00 89 1021.7
20221204095551 41 0 0.0 0.0 0.00 0.00 0.00 88 1021.8
20221204095045 41 0 0.0 0.0 0.00 0.00 0.00 88 1021.9
20221204094601 41 0 0.0 1.0 0.00 0.00 0.00 87 1021.9
20221204094047 41 0 0.0 1.0 0.00 0.00 0.00 87 1021.9
20221204093544 41 0 0.0 1.0 0.00 0.00 0.00 87 1021.9
20221204093108 41 0 0.0 1.0 0.00 0.00 0.00 86 1022.0
20221204092547 41 0 0.0 1.0 0.00 0.00 0.00 86 1022.0
20221204092046 41 0 0.0 0.0 0.00 0.00 0.00 86 1022.0
20221204091613 41 0 0.0 0.0 0.00 0.00 0.00 86 1021.9
20221204091047 41 0 0.0 0.0 0.00 0.00 0.00 86 1021.9
20221204090546 41 0 0.0 1.0 0.00 0.00 0.00 85 1021.9
20221204090105 41 0 0.0 1.0 0.00 0.00 0.00 86 1021.8
20221204085546 41 0 0.0 1.0 0.00 0.00 0.00 86 1021.9
20221204085045 41 0 0.0 1.0 0.00 0.00 0.00 86 1021.9
20221204084605 41 0 0.0 1.0 0.00 0.00 0.00 86 1021.9
20221204084045 41 0 0.0 1.0 0.00 0.00 0.00 86 1021.9
20221204083545 41 0 0.0 0.0 0.00 0.00 0.00 86 1022.0
20221204083105 41 0 0.0 0.0 0.00 0.00 0.00 86 1022.2
20221204082546 41 0 0.0 0.0 0.00 0.00 0.00 86 1022.1
20221204082045 41 0 0.0 0.0 0.00 0.00 0.00 86 1022.2
20221204081610 41 0 0.0 0.0 0.00 0.00 0.00 86 1022.2
20221204081048 41 0 0.0 0.0 0.00 0.00 0.00 86 1022.3
20221204080548 41 0 0.0 0.0 0.00 0.00 0.00 86 1022.2
20221204080109 41 0 0.0 0.0 0.00 0.00 0.00 86 1022.2
20221204075545 41 0 0.0 0.0 0.00 0.00 0.00 86 1022.2
20221204075046 41 0 0.0 0.0 0.00 0.00 0.00 86 1022.2
20221204074601 41 0 0.0 0.0 0.00 0.00 0.00 86 1022.1
20221204074045 41 0 0.0 0.0 0.00 0.00 0.00 86 1022.2
20221204073548 41 0 0.0 0.0 0.00 0.00 0.00 86 1022.3
20221204073116 40 0 0.0 0.0 0.00 0.00 0.00 86 1022.3
20221204072552 40 0 0.0 0.0 0.00 0.00 0.00 85 1022.3
20221204072051 40 0 0.0 0.0 0.00 0.00 0.00 85 1022.3
20221204071555 40 0 0.0 0.0 0.00 0.00 0.00 85 1022.3
20221204071046 40 0 0.0 0.0 0.00 0.00 0.00 85 1022.4
20221204070546 40 0 0.0 0.0 0.00 0.00 0.00 85 1022.4
20221204070112 40 0 0.0 0.0 0.00 0.00 0.00 84 1022.5
20221204065548 40 0 0.0 0.0 0.00 0.00 0.00 84 1022.4
20221204065050 40 0 0.0 0.0 0.00 0.00 0.00 83 1022.6
20221204064604 40 0 0.0 0.0 0.00 0.00 0.00 83 1022.5
20221204064047 40 0 0.0 0.0 0.00 0.00 0.00 84 1022.7
20221204063547 40 0 0.0 0.0 0.00 0.00 0.00 84 1022.7
20221204063102 40 0 0.0 1.0 0.00 0.00 0.00 84 1022.7
20221204062547 40 0 0.0 1.0 0.00 0.00 0.00 84 1022.7
20221204062046 40 0 0.0 0.0 0.00 0.00 0.00 84 1022.7
20221204061603 40 0 0.0 0.0 0.00 0.00 0.00 83 1022.7
20221204061048 40 0 0.0 0.0 0.00 0.00 0.00 83 1022.6
20221204060548 40 0 0.0 0.0 0.00 0.00 0.00 83 1022.6
20221204060108 41 0 0.0 1.0 0.00 0.00 0.00 83 1022.6
20221204055546 41 0 0.0 1.0 0.00 0.00 0.00 83 1022.7
20221204055045 41 0 0.0 1.0 0.00 0.00 0.00 83 1022.7
20221204054554 41 0 0.0 1.0 0.00 0.00 0.00 83 1022.7
20221204054047 41 0 0.0 1.0 0.00 0.00 0.00 82 1022.6
20221204053547 41 0 0.0 1.0 0.00 0.00 0.00 83 1022.5
20221204053104 41 0 0.0 2.0 0.00 0.00 0.00 82 1022.6
20221204052547 41 0 0.0 2.0 0.00 0.00 0.00 83 1022.6
20221204052045 41 0 0.0 2.0 0.00 0.00 0.00 83 1022.6
20221204051554 41 216 0.0 2.0 0.00 0.00 0.00 83 1022.6
20221204051046 41 200 0.0 2.0 0.00 0.00 0.00 83 1022.5
20221204050544 41 200 0.0 1.0 0.00 0.00 0.00 83 1022.4
20221204050110 41 0 0.0 1.0 0.00 0.00 0.00 83 1022.5
20221204045545 41 0 0.0 1.0 0.00 0.00 0.00 83 1022.5
20221204045045 41 0 0.0 0.0 0.00 0.00 0.00 83 1022.4
20221204044553 41 0 0.0 0.0 0.00 0.00 0.00 83 1022.4
20221204044049 41 0 0.0 1.0 0.00 0.00 0.00 83 1022.4
20221204043550 41 0 0.0 1.0 0.00 0.00 0.00 83 1022.5
20221204043102 41 0 0.0 0.0 0.00 0.00 0.00 83 1022.5
20221204042546 41 0 0.0 0.0 0.00 0.00 0.00 83 1022.5
20221204042046 41 0 0.0 0.0 0.00 0.00 0.00 82 1022.5
20221204041558 41 0 0.0 0.0 0.00 0.00 0.00 82 1022.3
20221204041046 41 0 0.0 0.0 0.00 0.00 0.00 82 1022.3
20221204040549 41 0 0.0 1.0 0.00 0.00 0.00 82 1022.4
20221204040057 41 0 0.0 1.0 0.00 0.00 0.00 81 1022.3
20221204035546 41 0 0.0 0.0 0.00 0.00 0.00 82 1022.3
20221204035050 41 0 0.0 0.0 0.00 0.00 0.00 81 1022.3
20221204034600 41 0 0.0 0.0 0.00 0.00 0.00 81 1022.3
20221204034046 41 0 0.0 0.0 0.00 0.00 0.00 81 1022.3
20221204033546 41 0 0.0 0.0 0.00 0.00 0.00 81 1022.2
20221204033107 41 0 0.0 0.0 0.00 0.00 0.00 80 1022.2
20221204032546 41 0 0.0 0.0 0.00 0.00 0.00 80 1022.1
20221204032046 42 0 0.0 0.0 0.00 0.00 0.00 80 1022.1
20221204031601 42 0 0.0 0.0 0.00 0.00 0.00 80 1022.2
20221204031046 42 0 0.0 0.0 0.00 0.00 0.00 80 1022.1
20221204030547 42 0 0.0 0.0 0.00 0.00 0.00 80 1022.2
20221204030121 42 0 0.0 0.0 0.00 0.00 0.00 79 1022.3
20221204025547 42 0 0.0 0.0 0.00 0.00 0.00 80 1022.3
20221204025047 42 0 0.0 0.0 0.00 0.00 0.00 79 1022.2
20221204024559 42 0 0.0 0.0 0.00 0.00 0.00 78 1022.2
20221204024046 42 0 0.0 0.0 0.00 0.00 0.00 78 1022.2
20221204023545 42 0 0.0 0.0 0.00 0.00 0.00 77 1022.2
20221204023059 42 0 0.0 0.0 0.00 0.00 0.00 76 1022.1
20221204022545 42 0 0.0 0.0 0.00 0.00 0.00 77 1022.1
20221204022045 43 0 0.0 0.0 0.00 0.00 0.00 77 1022.2
20221204021603 43 0 0.0 0.0 0.00 0.00 0.00 76 1022.2
20221204021046 43 0 0.0 0.0 0.00 0.00 0.00 75 1022.2
20221204020546 43 0 0.0 0.0 0.00 0.00 0.00 75 1022.2
20221204020059 43 0 0.0 0.0 0.00 0.00 0.00 75 1022.2
20221204015546 44 0 0.0 0.0 0.00 0.00 0.00 76 1022.0
20221204015046 44 0 0.0 0.0 0.00 0.00 0.00 75 1022.1
20221204014605 44 0 0.0 0.0 0.00 0.00 0.00 74 1022.0
20221204014046 44 0 0.0 0.0 0.00 0.00 0.00 74 1022.1
20221204013546 45 0 0.0 0.0 0.00 0.00 0.00 74 1022.0
20221204013104 45 0 0.0 0.0 0.00 0.00 0.00 73 1022.0
20221204012548 45 0 0.0 0.0 0.00 0.00 0.00 74 1022.0
20221204012045 46 0 0.0 0.0 0.00 0.00 0.00 73 1022.0
20221204011554 46 0 0.0 0.0 0.00 0.00 0.00 74 1022.0
20221204011046 46 0 0.0 0.0 0.00 0.00 0.00 74 1022.0
20221204010546 47 0 0.0 0.0 0.00 0.00 0.00 74 1022.0
20221204010128 47 0 0.0 1.0 0.00 0.00 0.00 74 1022.0
20221204005546 47 0 0.0 1.0 0.00 0.00 0.00 73 1022.0
20221204005048 48 0 0.0 1.0 0.00 0.00 0.00 73 1022.0
20221204004557 48 0 0.0 0.0 0.00 0.00 0.00 71 1022.0
20221204004046 49 0 0.0 1.0 0.00 0.00 0.00 72 1022.0
20221204003546 49 0 0.0 1.0 0.00 0.00 0.00 71 1022.0
20221204003100 50 0 0.0 1.0 0.00 0.00 0.00 69 1022.0
20221204002545 50 0 0.0 1.0 0.00 0.00 0.00 71 1021.8
20221204002045 51 0 0.0 1.0 0.00 0.00 0.00 70 1021.8
20221204001608 51 0 0.0 0.0 0.00 0.00 0.00 70 1021.9
20221204001047 51 0 0.0 0.0 0.00 0.00 0.00 69 1021.7
20221204000547 52 0 0.0 0.0 0.00 0.00 0.00 68 1021.6
20221204000106 52 0 0.0 0.0 0.00 0.00 0.00 68 1021.6
20221203235546 52 0 0.0 0.0 0.00 0.00 0.00 67 1021.6
20221203235045 53 0 0.0 0.0 0.00 0.00 0.00 66 1021.5
20221203234605 53 0 0.0 0.0 0.00 0.00 0.00 66 1021.4
20221203234046 53 0 0.0 1.0 0.00 0.00 0.00 64 1021.4
20221203233546 53 0 0.0 1.0 0.00 0.00 0.00 63 1021.4
20221203233107 53 0 0.0 1.0 0.00 0.00 0.00 61 1021.5
20221203232551 54 0 0.0 2.0 0.00 0.00 0.00 61 1021.4
20221203232046 54 0 0.0 2.0 0.00 0.00 0.00 61 1021.4
20221203231559 54 0 0.0 2.0 0.00 0.00 0.00 59 1021.4
20221203231045 54 0 0.0 2.0 0.00 0.00 0.00 57 1021.2
20221203230545 55 203 0.0 3.0 0.00 0.00 0.00 57 1021.2
20221203230103 55 0 1.0 3.0 0.00 0.00 0.00 54 1021.2
20221203225547 55 0 0.0 4.0 0.00 0.00 0.00 55 1021.2
20221203225046 55 0 0.0 4.0 0.00 0.00 0.00 54 1021.1
20221203224557 56 182 0.0 4.0 0.00 0.00 0.00 54 1021.1
20221203224051 56 0 0.0 4.0 0.00 0.00 0.00 52 1021.0
20221203223546 56 196 0.0 4.0 0.00 0.00 0.00 51 1021.1
20221203223110 56 0 1.0 4.0 0.00 0.00 0.00 49 1021.1
20221203222547 56 204 0.0 3.0 0.00 0.00 0.00 51 1021.0
20221203222045 56 208 0.0 3.0 0.00 0.00 0.00 49 1021.0
20221203221554 57 0 1.0 3.0 0.00 0.00 0.00 50 1020.9
20221203221045 57 209 1.0 4.0 0.00 0.00 0.00 48 1021.0
20221203220547 57 210 0.0 4.0 0.00 0.00 0.00 49 1021.0
20221203220109 57 204 0.0 6.0 0.00 0.00 0.00 46 1021.0
20221203215544 57 205 2.0 6.0 0.00 0.00 0.00 42 1021.1
20221203215047 57 209 1.0 6.0 0.00 0.00 0.00 43 1021.0
20221203214558 57 171 0.0 6.0 0.00 0.00 0.00 45 1021.1
20221203214048 57 173 0.0 6.0 0.00 0.00 0.00 43 1021.0
20221203213546 58 219 1.0 6.0 0.00 0.00 0.00 41 1021.0